Regional Weather Roundup
Issued by NWS

Home | Current Version | Previous Version | Text Only | Print | Product List | Glossary Off
Versions: 1 2 3 4 5 6 7 8 9 10 11 12 13 14 15 16 17 18 19 20 21 22 23 24 25 26 27 28 29 30 31 32 33 34 35 36 37 38 39 40 41 42 43 44 45 46 47 48 49 50

000
ASUS43 KDTX 010801
RWRMI
MICHIGAN HOURLY REGIONAL WEATHER ROUNDUP
NATIONAL WEATHER SERVICE DETROIT/PONTIAC MI
400 AM EDT FRI AUG 01 2014

NOTE: "FAIR" INDICATES FEW OR NO CLOUDS BELOW 12,000 FEET WITH NO
SIGNIFICANT WEATHER AND/OR OBSTRUCTION TO VISIBILITY.

MIZ047>049-052>055-059>063-066>070-074>076-081>083-010900-
SOUTHEAST LOWER MICHIGAN

CITY           SKY/WX    TMP DP  RH WIND       PRES   REMARKS
ADRIAN         PTCLDY    61  58  90 SW5       30.07S
ALMA           PTCLDY    60  58  92 S6        30.03R
ANN ARBOR      FOG       54  52  93 CALM      30.05F VSB 1/4
BAD AXE        CLEAR     55  55 100 CALM      30.04S FOG
CARO           MOCLDY    60  60 100 CALM      30.03S
DETROIT CITY   CLEAR     65  58  78 CALM      30.05S
DETROIT        PTCLDY    62  58  86 S3        30.06R
FLINT          CLOUDY    67  58  72 CALM      30.04F THUNDER
GROSSE ILE     CLEAR     64  61  88 W5        30.05R
HILLSDALE      CLOUDY    64  62  96 CALM      30.06F
HOWELL         CLEAR     61  58  89 CALM      30.05S

CITY           SKY/WX    TMP DP  RH WIND       PRES   REMARKS
JACKSON        CLEAR     61  57  87 SW6       30.06S
LAMBERTVILLE   PTCLDY    59  57  94 CALM      30.07S
LANSING        CLEAR     64  58  80 SW8       30.04S
LAPEER         PTSUNNY   56  55  96 CALM      30.05S
MASON          CLEAR     59  56  91 CALM      30.05S
MONROE         CLEAR     61  57  88 CALM      30.04S
MT. CLEMENS    CLEAR     58  56  94 CALM      30.04S
PONTIAC        CLEAR     61  57  87 CALM      30.04F
PORT HOPE        N/A     62  58  86 SW7       30.00S
PORT HURON     FOG       52  52 100 CALM      30.05R VSB 1/2
TRI CITIES     MOCLDY    65  60  84 S3        30.03S
TROY           CLEAR     63  59  86 W3        30.06S
SAGINAW HB     MOCLDY    63  63 100 SW3       30.02S
$$
MIZ043>046-050>051-056>058-064>065-071>073-077>080-010900-
SOUTHWEST LOWER MICHIGAN

CITY           SKY/WX    TMP DP  RH WIND       PRES   REMARKS
BATTLE CREEK   CLEAR     63  58  83 SW6       30.06S
BENTON HARBOR  CLEAR     59  58  96 CALM      30.05R FOG
BIG RAPIDS     CLEAR     57  57 100 CALM      30.01S
COLDWATER      MOCLDY    65  61  87 W5        30.06S
FREMONT        FAIR      58  58 100 CALM      30.02R FOG
HOLLAND        CLEAR     63  59  87 S3        30.04S
GRAND RAPIDS   CLEAR     64  60  87 S7        30.04R
IONIA          FAIR      61  58  90 SW6       30.03R
KALAMAZOO      CLEAR     62  58  86 SW5       30.05S
LUDINGTON      CLEAR     55  53  95 CALM      30.01S FOG
MARSHALL       CLEAR     61  58  91 CALM      30.05S
MOUNT PLEASANT PTCLDY    61  58  91 CALM      30.01S
MUSKEGON       CLOUDY    61  57  87 SW3       30.02S
SOUTH HAVEN    CLEAR     61  61 100 CALM      30.04S FOG
$$
MIZ016>042-010900-
NORTHERN LOWER MICHIGAN

CITY           SKY/WX    TMP DP  RH WIND       PRES   REMARKS
ALPENA         PTCLDY    55  53  93 CALM      30.00S
BEAVER ISLAND  FOG       50  50 100 CALM      30.00S VSB 1/4
BELLAIRE       PTCLDY    54  52  94 CALM      30.00S
CADILLAC       CLEAR     50  50 100 CALM      30.02S FOG
CHARLEVOIX     CLEAR     57  57 100 CALM      30.02S FOG
FRANKFORT      CLEAR     58  54  86 CALM      29.99F
GAYLORD        MOCLDY    56  52  86 CALM      30.01F
GRAYLING       PTCLDY    50  50 100 CALM      30.02S FOG
HARBOR SPRINGS CLEAR     57  55  94 CALM      30.00S FOG
HOUGHTON LAKE  CLEAR     60  57  89 SW6       30.02S
MANISTEE       CLEAR     55  54  94 SE3       30.01S
OSCODA         CLEAR     53  51  94 CALM      30.00S
PELLSTON       CLEAR     50  49  96 CALM      30.00S
ROGERS CITY    PTCLDY    58  58  97 S5        30.00F
TRAVERSE CITY  PTCLDY    59  56  89 SE3       29.99S
$$
MIZ007>008-015-010900-
EASTERN UPPER MICHIGAN

CITY           SKY/WX    TMP DP  RH WIND       PRES   REMARKS
KINROSS        MOCLDY    54  54 100 CALM      30.00S
MACKINAC ISLAN CLOUDY    59  59 100 SW3       29.99F FOG
NEWBERRY       CLOUDY    51  49  92 CALM      29.99S
S. S. MARIE    CLOUDY    55  51  86 CALM      29.99S
$$
MIZ004>006-011>014-085-010900-
CENTRAL UPPER MICHIGAN

CITY           SKY/WX    TMP DP  RH WIND       PRES   REMARKS
MANISTIQUE     FOG       46  45  99 CALM      29.99S VSB<1/4
ESCANABA       PTCLDY    50  46  87 CALM      29.99S
MENOMINEE      MOCLDY    57  54  88 N3        29.98S
SAWYER-GWINN   CLEAR     51  47  86 CALM      30.01R
$$
MIZ001>003-009>011-084-010900-
WESTERN UPPER MICHIGAN

CITY           SKY/WX    TMP DP  RH WIND       PRES   REMARKS
IRON MOUNTAIN  MOCLDY    54  52  93 CALM      30.00S
HOUGHTON       CLEAR     54  49  83 CALM      30.00R
COPPER HARBOR    N/A     54  50  86 W3        29.99R
$$

ABBREVIATIONS USED IN REMARKS
   TC - TEMPERATURE IN CELSIUS
  WCI - WIND CHILL INDEX
   HX - HEAT INDEX
  VSB - VISIBILITY



USA.gov is the U.S. government's official web portal to all federal, state and local government web resources and services.